Anchorage Merrill, AK

7:38 AM AKDT on September 23, 2017 (GMT -0800)
Merrill

Weather History for PAMR - August, 2014

Change the Weather History Date:

Friday, August 1, 2014

  Actual Average Record
Temperature  
Mean Temperature 60 °F -  
Max Temperature 68 °F 66 °F 79 °F (1998)
Min Temperature 55 °F 51 °F 46 °F (2000)
Degree Days  
Heating Degree Days 4    
Growing Degree Days 10 (Base 50)    
Moisture  
Dew Point 49 °F    
Average Humidity 65    
Maximum Humidity 77    
Minimum Humidity 45    
Precipitation  
Precipitation 0.00 in - - ()
Sea Level Pressure  
Sea Level Pressure 30.22 in    
Wind  
Wind Speed 3 mph (WNW)    
Max Wind Speed 14 mph    
Max Gust Speed -    
Visibility 10 miles    
Events      
Averages and records for this station are not official NWS values.
T = Trace of Precipitation, MM = Missing Value Source: NWS Daily Summary

Daily Weather History Graph

Daily Weather History Graph

Search for Another Location

Airport or City:

Trip Planner

Search our weather history database for the weather conditions in past years. The results will help you decide how hot, cold, wet, or windy it might be!

Date:

Astronomy

Aug. 01, 2014 Rise Set
Actual Time 5:32 AM AKDT 10:37 PM AKDT
Civil Twilight 4:26 AM AKDT 11:42 PM AKDT
Nautical Twilight 2:38 AM AKDT 1:33 AM AKDT
Astronomical Twilight Sun does not set Sun does not set
Moon 12:57 PM AKDT (8/1) 11:30 PM AKDT (8/1)
Length of Visible Light 19h 15m
Length of Day
17h 05m
Waxing Crescent, 29% of the Moon is Illuminated
Aug 1
Waxing Crescent
Aug 3
First Quarter
Aug 10
Full
Aug 17
Last Quarter
Aug 25
New

Hourly Weather History & Observations

Time (AKDT) Temp. Dew Point Humidity Pressure Visibility Wind Dir Wind Speed Gust Speed Precip Events Conditions
12:53 AM 57.0 °F 50.0 °F 77% 30.30 in 10.0 mi Calm Calm - N/A   Mostly Cloudy
1:53 AM 55.9 °F 48.9 °F 77% 30.29 in 10.0 mi SE 3.5 mph - N/A   Mostly Cloudy
2:53 AM 55.9 °F 48.9 °F 77% 30.28 in 10.0 mi Calm Calm - N/A   Mostly Cloudy
4:53 AM 57.0 °F 48.9 °F 74% 30.27 in 10.0 mi Calm Calm - N/A   Overcast
5:53 AM 57.9 °F 50.0 °F 75% 30.26 in 10.0 mi Calm Calm - N/A   Overcast
6:53 AM 59.0 °F 50.0 °F 72% 30.26 in 10.0 mi Calm Calm - N/A   Mostly Cloudy
7:53 AM 59.0 °F 51.1 °F 75% 30.26 in 10.0 mi NNW 3.5 mph - N/A   Overcast
8:53 AM 60.1 °F 51.1 °F 72% 30.24 in 10.0 mi NNW 4.6 mph - N/A   Overcast
9:53 AM 61.0 °F 51.1 °F 70% 30.24 in 10.0 mi Calm Calm - N/A   Overcast
9:54 AM 60.8 °F 51.8 °F 72% 30.23 in 10.0 mi Calm Calm - N/A   Mostly Cloudy
10:53 AM 61.0 °F 51.1 °F 70% 30.24 in 10.0 mi Variable 5.8 mph - N/A   Mostly Cloudy
11:53 AM 63.0 °F 51.1 °F 65% 30.22 in 10.0 mi West 6.9 mph - N/A   Mostly Cloudy
12:53 PM 66.0 °F 53.1 °F 63% 30.22 in 10.0 mi NNW 5.8 mph - N/A   Mostly Cloudy
1:53 PM 66.9 °F 50.0 °F 54% 30.21 in 10.0 mi NW 8.1 mph - N/A   Partly Cloudy
2:53 PM 64.9 °F 50.0 °F 58% 30.20 in 10.0 mi West 10.4 mph - N/A   Clear
3:53 PM 66.0 °F 50.0 °F 56% 30.18 in 10.0 mi West 6.9 mph - N/A   Clear
4:53 PM 66.0 °F 48.9 °F 54% 30.17 in 10.0 mi West 11.5 mph - N/A   Mostly Cloudy
5:53 PM 66.0 °F 44.1 °F 45% 30.17 in 10.0 mi West 13.8 mph - N/A   Clear
6:53 PM 64.9 °F 46.0 °F 50% 30.17 in 10.0 mi West 6.9 mph - N/A   Mostly Cloudy
7:53 PM 63.0 °F 46.0 °F 54% 30.16 in 10.0 mi West 8.1 mph - N/A   Clear
8:53 PM 63.0 °F 46.0 °F 54% 30.16 in 10.0 mi West 5.8 mph - N/A   Partly Cloudy
9:53 PM 62.1 °F 48.0 °F 60% 30.16 in 10.0 mi WNW 5.8 mph - N/A   Mostly Cloudy
10:53 PM 60.1 °F 50.0 °F 69% 30.16 in 10.0 mi NW 3.5 mph - N/A   Mostly Cloudy
11:53 PM 60.1 °F 51.1 °F 72% 30.15 in 10.0 mi Calm Calm - N/A   Overcast